Location: Beuerbach
(48.1459°N, 10.9174°E)
Time: 20:46:03
(UTC+00:00)

SL-16 R/B - Pass Details

Date: 16 August 2024
Orbit: 842 x 845 km, 71.0° (Epoch: 07 September)

Event Time Altitude Azimuth Distance (km) Brightness Sun altitude
Exits shadow 01:12:20 - 284° (WNW) 3,235 5.1 -23.4°
Reaches altitude 10° 01:16:19 10° 315° (NW) 2,474 4.8 -23.1°
Maximum altitude 01:17:59 11° 332° (NNW) 2,389 4.9 -22.9°
Drops below altitude 10° 01:19:39 10° 350° (N) 2,477 5.3 -22.8°
Sets 01:24:18 0° 24° (NNE) 3,416 6.8 -22.4°
